GW6609 Weather Reports


Display with metric or nautical units.
time (UTC)temp
F
wind
direction
speed
MPH
gust
MPH
rain 1hr
in
rain 24hr
in
rain mn
in
humidity
%
barometer
mb
20260507213114 82 72 0.0 1.0 0.00 0.00 0.00 87 1006.0
20260507212614 82 71 0.0 0.0 0.00 0.00 0.00 87 1006.0
20260507212114 82 70 0.0 0.0 0.00 0.00 0.00 87 1006.0
20260507211615 82 71 0.0 1.0 0.00 0.00 0.00 87 1006.0
20260507211114 82 74 0.0 0.0 0.00 0.00 0.00 86 1006.0
20260507210616 82 71 1.0 1.0 0.00 0.00 0.00 86 1006.0
20260507210116 82 76 1.0 1.0 0.00 0.00 0.00 86 1006.0
20260507205614 82 74 1.0 1.0 0.00 0.00 0.00 86 1006.0
20260507205115 82 74 0.0 0.0 0.00 0.00 0.00 86 1006.0
20260507204615 82 70 0.0 1.0 0.00 0.00 0.00 86 1006.0
20260507204114 82 67 0.0 0.0 0.00 0.00 0.00 86 1006.0
20260507203614 82 69 0.0 1.0 0.00 0.00 0.00 86 1006.0
20260507203115 82 64 0.0 0.0 0.00 0.00 0.00 86 1006.0
20260507202615 82 94 1.0 2.0 0.00 0.00 0.00 86 1006.0
20260507202115 82 54 1.0 1.0 0.00 0.00 0.00 86 1006.0
20260507201614 82 49 0.0 1.0 0.00 0.00 0.00 86 1006.0
20260507201115 82 53 1.0 1.0 0.00 0.00 0.00 86 1006.0
20260507200623 82 49 1.0 1.0 0.00 0.00 0.00 86 1007.0
20260507200114 82 50 1.0 1.0 0.00 0.00 0.00 86 1007.0
20260507195614 82 51 1.0 1.0 0.00 0.00 0.00 86 1007.0
20260507195114 82 51 0.0 1.0 0.00 0.00 0.00 86 1007.0
20260507194614 82 49 1.0 1.0 0.00 0.00 0.00 86 1007.0
20260507194115 82 49 0.0 1.0 0.00 0.00 0.00 85 1007.0
20260507193616 82 50 0.0 0.0 0.00 0.00 0.00 85 1007.0
20260507193115 82 49 0.0 0.0 0.00 0.00 0.00 85 1007.0
20260507192614 82 48 0.0 0.0 0.00 0.00 0.00 86 1007.0
20260507192115 82 49 0.0 0.0 0.00 0.00 0.00 86 1007.0
20260507191614 82 50 1.0 1.0 0.00 0.00 0.00 86 1007.0
20260507191114 82 52 1.0 2.0 0.00 0.00 0.00 85 1007.0
20260507190614 82 48 0.0 1.0 0.00 0.00 0.00 85 1007.0
20260507190114 83 49 1.0 1.0 0.00 0.00 0.00 84 1007.0
20260507185614 83 48 1.0 1.0 0.00 0.00 0.00 84 1007.0
20260507185114 83 46 0.0 0.0 0.00 0.00 0.00 84 1007.0
20260507184615 83 46 0.0 0.0 0.00 0.00 0.00 84 1007.0
20260507184114 83 46 0.0 0.0 0.00 0.00 0.00 83 1007.0
20260507183615 83 46 0.0 0.0 0.00 0.00 0.00 83 1007.0
20260507183114 83 46 0.0 0.0 0.00 0.00 0.00 83 1008.0
20260507182617 83 46 0.0 0.0 0.00 0.00 0.00 83 1007.0
20260507182114 83 46 0.0 1.0 0.00 0.00 0.00 83 1008.0
20260507181615 83 46 0.0 0.0 0.00 0.00 0.00 82 1008.0
20260507181115 83 44 1.0 1.0 0.00 0.00 0.00 82 1008.0
20260507180615 83 43 1.0 1.0 0.00 0.00 0.00 82 1008.0
20260507180115 83 43 1.0 1.0 0.00 0.00 0.00 82 1008.0
20260507175614 83 41 0.0 1.0 0.00 0.00 0.00 82 1008.0
20260507175115 83 40 1.0 1.0 0.00 0.00 0.00 82 1008.0
20260507174614 83 46 0.0 0.0 0.00 0.00 0.00 83 1008.0
20260507174114 83 46 0.0 1.0 0.00 0.00 0.00 82 1008.0
20260507173614 83 44 0.0 0.0 0.00 0.00 0.00 82 1008.0
20260507173115 83 44 0.0 1.0 0.00 0.00 0.00 82 1008.0
20260507172614 83 42 1.0 1.0 0.00 0.00 0.00 82 1008.0
20260507172115 83 42 1.0 1.0 0.00 0.00 0.00 82 1008.0
20260507171615 83 43 1.0 1.0 0.00 0.00 0.00 82 1008.0
20260507171115 83 42 1.0 1.0 0.00 0.00 0.00 82 1008.0
20260507170614 83 48 1.0 1.0 0.00 0.00 0.00 81 1008.0
20260507170114 83 68 0.0 1.0 0.00 0.00 0.00 81 1008.0
20260507165614 83 65 2.0 2.0 0.00 0.00 0.00 81 1008.0
20260507165115 84 66 1.0 1.0 0.00 0.00 0.00 81 1008.0
20260507164614 84 79 1.0 1.0 0.00 0.00 0.00 81 1008.0
20260507164115 84 60 0.0 1.0 0.00 0.00 0.00 81 1008.0
20260507163614 84 73 1.0 1.0 0.00 0.00 0.00 81 1008.0
20260507163114 84 90 1.0 2.0 0.00 0.00 0.00 81 1008.0
20260507162615 84 75 0.0 1.0 0.00 0.00 0.00 81 1008.0
20260507162114 84 73 1.0 1.0 0.00 0.00 0.00 81 1008.0
20260507161615 84 76 1.0 1.0 0.00 0.00 0.00 80 1007.0
20260507161114 84 170 3.0 5.0 0.00 0.00 0.00 80 1007.0
20260507160615 84 70 1.0 2.0 0.00 0.00 0.00 80 1007.0
20260507160115 84 77 3.0 5.0 0.00 0.00 0.00 80 1007.0
20260507155620 84 66 1.0 1.0 0.00 0.00 0.00 80 1007.0
20260507155115 84 66 2.0 2.0 0.00 0.00 0.00 80 1007.0
20260507154614 84 40 3.0 3.0 0.00 0.00 0.00 80 1007.0
20260507154114 84 252 3.0 5.0 0.00 0.00 0.00 80 1007.0
20260507153614 84 147 3.0 3.0 0.00 0.00 0.00 80 1007.0
20260507153114 84 151 3.0 3.0 0.00 0.00 0.00 80 1007.0
20260507152615 84 29 3.0 3.0 0.00 0.00 0.00 80 1007.0
20260507152114 84 225 3.0 5.0 0.00 0.00 0.00 80 1007.0
20260507151616 84 197 3.0 3.0 0.00 0.00 0.00 79 1007.0
20260507151115 84 74 2.0 3.0 0.00 0.00 0.00 79 1007.0
20260507150615 85 69 2.0 2.0 0.00 0.00 0.00 79 1007.0
20260507150114 85 59 1.0 2.0 0.00 0.00 0.00 79 1006.0
20260507145614 85 212 6.0 7.0 0.00 0.00 0.00 79 1006.0
20260507145115 85 28 2.0 3.0 0.00 0.00 0.00 79 1006.0
20260507144614 85 13 4.0 6.0 0.00 0.00 0.00 79 1006.0
20260507144114 85 7 5.0 7.0 0.00 0.00 0.00 79 1006.0
20260507143615 85 292 4.0 5.0 0.00 0.00 0.00 79 1006.0
20260507143114 85 274 7.0 8.0 0.00 0.00 0.00 79 1006.0
20260507142614 85 178 5.0 6.0 0.00 0.00 0.00 79 1006.0
20260507142115 85 222 3.0 5.0 0.00 0.00 0.00 78 1005.0
20260507141615 85 28 5.0 6.0 0.00 0.00 0.00 78 1005.0
20260507141114 85 65 2.0 2.0 0.00 0.00 0.00 78 1005.0
20260507140614 85 264 4.0 6.0 0.00 0.00 0.00 78 1005.0
20260507140115 85 354 5.0 7.0 0.00 0.00 0.00 77 1005.0
20260507135614 86 26 1.0 2.0 0.00 0.00 0.00 76 1005.0
20260507135114 86 233 5.0 7.0 0.00 0.00 0.00 76 1005.0
20260507134614 86 352 3.0 6.0 0.00 0.00 0.00 76 1005.0
20260507134115 86 184 3.0 3.0 0.00 0.00 0.00 75 1005.0
20260507133615 86 63 2.0 3.0 0.00 0.00 0.00 74 1005.0
20260507133115 86 57 2.0 2.0 0.00 0.00 0.00 73 1004.0
20260507132615 86 58 2.0 3.0 0.00 0.00 0.00 73 1005.0
20260507132116 86 326 4.0 5.0 0.00 0.00 0.00 73 1004.0
20260507131614 86 27 1.0 2.0 0.00 0.00 0.00 73 1004.0
20260507131114 86 3 4.0 6.0 0.00 0.00 0.00 73 1004.0
20260507130615 87 51 2.0 2.0 0.00 0.00 0.00 73 1004.0
20260507130115 87 352 1.0 2.0 0.00 0.00 0.00 73 1004.0
20260507125619 87 37 3.0 3.0 0.00 0.00 0.00 73 1004.0
20260507125114 87 57 3.0 5.0 0.00 0.00 0.00 73 1004.0
20260507124614 87 317 3.0 5.0 0.00 0.00 0.00 72 1004.0
20260507124114 87 68 3.0 5.0 0.00 0.00 0.00 72 1004.0
20260507123615 88 52 1.0 1.0 0.00 0.00 0.00 71 1004.0
20260507123115 88 47 4.0 7.0 0.00 0.00 0.00 71 1004.0
20260507122614 88 71 3.0 5.0 0.00 0.00 0.00 70 1003.0
20260507122115 89 345 3.0 3.0 0.00 0.00 0.00 69 1004.0
20260507121614 89 358 4.0 5.0 0.00 0.00 0.00 68 1003.0
20260507121115 89 222 5.0 7.0 0.00 0.00 0.00 67 1003.0
20260507120114 89 44 1.0 2.0 0.00 0.00 0.00 69 1004.0
20260507115615 90 303 5.0 8.0 0.00 0.00 0.00 67 1004.0
20260507115114 90 222 2.0 3.0 0.00 0.00 0.00 67 1004.0
20260507114616 90 336 3.0 5.0 0.00 0.00 0.00 66 1003.0
20260507114114 91 53 3.0 3.0 0.00 0.00 0.00 65 1003.0
20260507113615 91 233 7.0 8.0 0.00 0.00 0.00 65 1003.0
20260507113115 91 326 3.0 5.0 0.00 0.00 0.00 67 1003.0
20260507112614 91 24 4.0 5.0 0.00 0.00 0.00 66 1003.0
20260507112115 91 318 3.0 5.0 0.00 0.00 0.00 65 1003.0
20260507111615 92 324 7.0 9.0 0.00 0.00 0.00 66 1004.0
20260507111116 91 49 2.0 2.0 0.00 0.00 0.00 65 1003.0
20260507110614 91 344 3.0 3.0 0.00 0.00 0.00 66 1004.0
20260507110116 91 250 4.0 6.0 0.00 0.00 0.00 65 1004.0
20260507105614 92 67 2.0 3.0 0.00 0.00 0.00 66 1004.0
20260507105114 92 37 2.0 2.0 0.00 0.00 0.00 67 1004.0
20260507104614 93 332 5.0 7.0 0.00 0.00 0.00 65 1004.0
20260507104114 93 40 5.0 6.0 0.00 0.00 0.00 66 1004.0
20260507103614 93 359 4.0 5.0 0.00 0.00 0.00 66 1004.0
20260507103114 92 59 2.0 2.0 0.00 0.00 0.00 66 1004.0
20260507102614 93 341 4.0 6.0 0.00 0.00 0.00 66 1004.0
20260507102115 93 71 5.0 8.0 0.00 0.00 0.00 66 1004.0
20260507101614 93 64 1.0 2.0 0.00 0.00 0.00 66 1004.0
20260507101114 93 340 2.0 3.0 0.00 0.00 0.00 67 1004.0
20260507100615 93 2 4.0 6.0 0.00 0.00 0.00 66 1004.0
20260507100115 93 237 3.0 6.0 0.00 0.00 0.00 67 1004.0
20260507095615 93 39 5.0 8.0 0.00 0.00 0.00 66 1004.0
20260507095114 94 32 3.0 3.0 0.00 0.00 0.00 66 1004.0
20260507094614 93 352 3.0 6.0 0.00 0.00 0.00 66 1004.0
20260507094114 94 290 5.0 7.0 0.00 0.00 0.00 65 1004.0
20260507093614 93 55 3.0 3.0 0.00 0.00 0.00 66 1004.0
20260507093114 94 13 4.0 5.0 0.00 0.00 0.00 66 1004.0
20260507092614 96 14 4.0 5.0 0.00 0.00 0.00 60 1004.0
20260507092114 95 42 1.0 2.0 0.00 0.00 0.00 59 1004.0
20260507091614 96 13 3.0 3.0 0.00 0.00 0.00 58 1004.0
20260507091115 97 57 1.0 1.0 0.00 0.00 0.00 57 1004.0
20260507090614 99 11 3.0 3.0 0.00 0.00 0.00 55 1004.0
20260507090114 98 63 1.0 2.0 0.00 0.00 0.00 53 1004.0
20260507085614 96 62 1.0 1.0 0.00 0.00 0.00 55 1004.0
20260507085115 97 349 3.0 3.0 0.00 0.00 0.00 55 1004.0
20260507084614 97 352 3.0 5.0 0.00 0.00 0.00 56 1004.0
20260507084115 98 71 2.0 2.0 0.00 0.00 0.00 55 1004.0
20260507083615 97 60 1.0 1.0 0.00 0.00 0.00 53 1004.0
20260507083114 98 336 5.0 6.0 0.00 0.00 0.00 52 1004.0
20260507082615 97 63 0.0 1.0 0.00 0.00 0.00 54 1004.0
20260507082114 96 62 1.0 2.0 0.00 0.00 0.00 55 1005.0
20260507081614 94 286 3.0 3.0 0.00 0.00 0.00 59 1005.0
20260507081114 94 51 2.0 3.0 0.00 0.00 0.00 58 1005.0
20260507080614 97 17 3.0 3.0 0.00 0.00 0.00 56 1005.0
20260507080114 96 46 2.0 3.0 0.00 0.00 0.00 57 1005.0
20260507075615 98 69 0.0 1.0 0.00 0.00 0.00 52 1005.0
20260507075114 96 70 0.0 0.0 0.00 0.00 0.00 53 1005.0
20260507074614 97 15 4.0 5.0 0.00 0.00 0.00 55 1005.0
20260507074114 98 73 2.0 2.0 0.00 0.00 0.00 54 1005.0
20260507073615 97 62 1.0 1.0 0.00 0.00 0.00 56 1005.0
20260507073114 96 102 2.0 2.0 0.00 0.00 0.00 55 1005.0
20260507072614 96 32 2.0 3.0 0.00 0.00 0.00 56 1005.0
20260507072114 96 45 2.0 3.0 0.00 0.00 0.00 57 1006.0
20260507071614 95 38 2.0 3.0 0.00 0.00 0.00 59 1006.0
20260507071114 97 71 2.0 2.0 0.00 0.00 0.00 56 1006.0
20260507070616 98 74 1.0 1.0 0.00 0.00 0.00 53 1006.0
20260507070114 99 116 3.0 5.0 0.00 0.00 0.00 51 1006.0
20260507065614 99 74 1.0 2.0 0.00 0.00 0.00 44 1006.0
20260507065115 97 70 0.0 0.0 0.00 0.00 0.00 45 1006.0
20260507064614 96 92 0.0 1.0 0.00 0.00 0.00 46 1006.0
20260507064115 96 82 2.0 3.0 0.00 0.00 0.00 47 1006.0
20260507063614 97 69 0.0 0.0 0.00 0.00 0.00 47 1007.0
20260507063115 96 98 2.0 2.0 0.00 0.00 0.00 46 1007.0
20260507062614 95 70 2.0 2.0 0.00 0.00 0.00 49 1007.0
20260507062114 96 65 1.0 1.0 0.00 0.00 0.00 48 1007.0
20260507061614 95 66 1.0 1.0 0.00 0.00 0.00 50 1007.0
20260507061114 94 58 2.0 3.0 0.00 0.00 0.00 50 1007.0
20260507060614 95 62 1.0 2.0 0.00 0.00 0.00 49 1007.0
20260507060115 95 72 2.0 3.0 0.00 0.00 0.00 49 1007.0
20260507055614 94 69 1.0 1.0 0.00 0.00 0.00 51 1007.0
20260507055114 94 72 3.0 3.0 0.00 0.00 0.00 50 1007.0
20260507054615 97 36 2.0 2.0 0.00 0.00 0.00 48 1007.0
20260507054115 96 70 0.0 0.0 0.00 0.00 0.00 49 1007.0
20260507053615 95 65 0.0 0.0 0.00 0.00 0.00 52 1008.0
20260507053114 93 41 1.0 2.0 0.00 0.00 0.00 56 1007.0
20260507052615 93 61 1.0 1.0 0.00 0.00 0.00 54 1008.0
20260507052114 94 54 2.0 2.0 0.00 0.00 0.00 54 1008.0
20260507051614 92 43 3.0 3.0 0.00 0.00 0.00 55 1008.0
20260507051116 91 65 1.0 1.0 0.00 0.00 0.00 55 1008.0
20260507050615 93 74 1.0 1.0 0.00 0.00 0.00 56 1008.0
20260507050115 94 66 1.0 1.0 0.00 0.00 0.00 50 1008.0
20260507045614 91 56 1.0 1.0 0.00 0.00 0.00 56 1008.0
20260507045114 92 55 2.0 2.0 0.00 0.00 0.00 60 1008.0
20260507044615 92 52 2.0 2.0 0.00 0.00 0.00 57 1008.0
20260507044116 92 63 0.0 1.0 0.00 0.00 0.00 58 1008.0
20260507043615 91 70 2.0 2.0 0.00 0.00 0.00 58 1008.0
20260507043114 92 56 2.0 2.0 0.00 0.00 0.00 60 1008.0
20260507042614 91 75 1.0 1.0 0.00 0.00 0.00 60 1008.0
20260507042114 89 63 1.0 1.0 0.00 0.00 0.00 65 1008.0
20260507041615 89 48 3.0 3.0 0.00 0.00 0.00 67 1008.0
20260507041114 91 66 3.0 3.0 0.00 0.00 0.00 65 1008.0
20260507040616 92 72 1.0 1.0 0.00 0.00 0.00 63 1008.0
20260507040114 91 56 1.0 1.0 0.00 0.00 0.00 62 1008.0
20260507035614 91 49 1.0 2.0 0.00 0.00 0.00 62 1008.0
20260507035115 91 37 1.0 2.0 0.00 0.00 0.00 62 1008.0
20260507034615 90 59 1.0 1.0 0.00 0.00 0.00 66 1008.0
20260507034114 89 58 1.0 1.0 0.00 0.00 0.00 69 1008.0
20260507033614 87 60 1.0 1.0 0.00 0.00 0.00 71 1008.0
20260507033114 88 41 1.0 2.0 0.00 0.00 0.00 71 1008.0
20260507032614 88 26 4.0 5.0 0.00 0.00 0.00 70 1008.0
20260507032115 89 59 0.0 0.0 0.00 0.00 0.00 70 1008.0
20260507031615 89 54 0.0 0.0 0.00 0.00 0.00 68 1008.0
20260507031115 89 60 2.0 2.0 0.00 0.00 0.00 69 1008.0
20260507030614 87 65 0.0 0.0 0.00 0.00 0.00 72 1008.0
20260507030114 86 55 0.0 1.0 0.00 0.00 0.00 75 1008.0
20260507025614 86 69 0.0 0.0 0.00 0.00 0.00 76 1008.0
20260507025114 86 80 1.0 1.0 0.00 0.00 0.00 77 1008.0
20260507024615 86 73 0.0 1.0 0.00 0.00 0.00 76 1008.0
20260507024115 87 98 3.0 3.0 0.00 0.00 0.00 76 1008.0
20260507023615 85 64 2.0 2.0 0.00 0.00 0.00 78 1008.0
20260507023115 85 56 1.0 1.0 0.00 0.00 0.00 78 1008.0
20260507022615 85 94 2.0 2.0 0.00 0.00 0.00 80 1008.0
20260507022115 85 79 2.0 2.0 0.00 0.00 0.00 80 1008.0
20260507021614 85 68 2.0 2.0 0.00 0.00 0.00 80 1008.0
20260507021115 85 74 2.0 3.0 0.00 0.00 0.00 80 1008.0
20260507020614 84 79 1.0 2.0 0.00 0.00 0.00 81 1008.0
20260507020114 84 65 0.0 1.0 0.00 0.00 0.00 81 1008.0
20260507015614 84 68 1.0 1.0 0.00 0.00 0.00 82 1008.0
20260507015115 83 65 2.0 2.0 0.00 0.00 0.00 83 1008.0
20260507014615 83 59 1.0 1.0 0.00 0.00 0.00 84 1008.0
20260507014114 82 67 0.0 1.0 0.00 0.00 0.00 84 1008.0
20260507013614 82 68 2.0 2.0 0.00 0.00 0.00 86 1008.0
20260507013115 81 67 1.0 1.0 0.00 0.00 0.00 87 1008.0
20260507012617 81 66 1.0 1.0 0.00 0.00 0.00 89 1008.0
20260507012114 80 65 2.0 2.0 0.00 0.00 0.00 89 1007.0
20260507011616 80 64 1.0 2.0 0.00 0.00 0.00 90 1008.0
20260507011115 80 74 0.0 1.0 0.00 0.00 0.00 90 1008.0
20260507010616 80 75 1.0 1.0 0.00 0.00 0.00 91 1007.0
20260507010116 79 75 1.0 1.0 0.00 0.00 0.00 91 1007.0
20260507005617 79 76 0.0 0.0 0.00 0.00 0.00 91 1007.0
20260507005116 79 76 0.0 0.0 0.00 0.00 0.00 91 1007.0
20260507004615 79 76 0.0 0.0 0.00 0.00 0.00 91 1007.0
20260507004115 79 76 0.0 1.0 0.00 0.00 0.00 91 1007.0
20260507003615 79 77 1.0 1.0 0.00 0.00 0.00 91 1007.0
20260507003114 79 77 0.0 1.0 0.00 0.00 0.00 91 1007.0
20260507002614 79 77 0.0 1.0 0.00 0.00 0.00 91 1007.0
20260507002115 79 77 1.0 1.0 0.00 0.00 0.00 91 1007.0
20260507001614 79 72 0.0 1.0 0.00 0.00 0.00 91 1007.0
20260507001115 79 72 0.0 0.0 0.00 0.00 0.00 91 1007.0
20260507000615 79 72 0.0 0.0 0.00 0.00 0.00 91 1006.0
20260507000122 79 72 0.0 0.0 0.00 0.00 0.00 91 1006.0
20260506235615 79 67 0.0 0.0 0.00 0.00 0.00 91 1006.0
20260506235115 78 65 0.0 0.0 0.00 0.00 0.00 91 1006.0
20260506234614 79 65 0.0 0.0 0.00 0.00 0.00 91 1006.0
20260506234114 79 65 0.0 0.0 0.00 0.00 0.00 91 1006.0
20260506233615 79 66 0.0 1.0 0.00 0.00 0.00 91 1006.0
20260506233114 79 67 0.0 0.0 0.00 0.00 0.00 91 1006.0
20260506232618 79 67 0.0 0.0 0.00 0.00 0.00 91 1006.0
20260506232115 79 67 0.0 0.0 0.00 0.00 0.00 91 1006.0
20260506231614 79 63 0.0 0.0 0.00 0.00 0.00 91 1006.0
20260506231114 79 63 0.0 0.0 0.00 0.00 0.00 91 1006.0
20260506230615 79 63 0.0 0.0 0.00 0.00 0.00 91 1006.0
20260506230114 79 62 0.0 0.0 0.00 0.00 0.00 91 1006.0
20260506225614 79 62 0.0 0.0 0.00 0.00 0.00 91 1006.0
20260506225115 79 62 0.0 0.0 0.00 0.00 0.00 91 1006.0
20260506224615 79 62 0.0 1.0 0.00 0.00 0.00 91 1006.0
20260506224114 79 63 0.0 0.0 0.00 0.00 0.00 91 1006.0
20260506223615 79 64 0.0 0.0 0.00 0.00 0.00 91 1006.0
20260506223115 79 63 0.0 0.0 0.00 0.00 0.00 91 1006.0
20260506222615 79 64 0.0 0.0 0.00 0.00 0.00 91 1006.0
20260506222115 79 64 0.0 0.0 0.00 0.00 0.00 91 1006.0
20260506221614 79 64 0.0 1.0 0.00 0.00 0.00 91 1005.0
20260506221114 79 64 0.0 0.0 0.00 0.00 0.00 91 1006.0
20260506220615 79 65 0.0 0.0 0.00 0.00 0.00 91 1006.0
20260506220114 79 65 0.0 0.0 0.00 0.00 0.00 91 1006.0
20260506215614 79 64 0.0 0.0 0.00 0.00 0.00 91 1006.0
20260506215115 79 65 0.0 0.0 0.00 0.00 0.00 91 1006.0
20260506214614 79 65 0.0 0.0 0.00 0.00 0.00 91 1006.0
20260506214116 79 65 0.0 0.0 0.00 0.00 0.00 91 1006.0
20260506213614 79 71 0.0 0.0 0.00 0.00 0.00 91 1006.0